GFSNE_500_temp_159.txt.gz
Temp
-18 -17 -17 -17 -17 -17 -17 -17 -16 -15 -14 -14 -13 -14 -13 -13 -14 -14 -13 -15 -15 -14 -13 -13 -13 -13 -13 -13 -13 -13 -12 -13 -13 -13 -13 -13 -12 -13
-18 -17 -17 -17 -17 -17 -16 -16 -16 -15 -16 -17 -16 -15 -14 -14 -14 -14 -14 -14 -15 -14 -14 -14 -13 -13 -13 -13 -13 -13 -13 -13 -13 -13 -13 -13 -13 -13
-18 -17 -17 -17 -16 -16 -16 -16 -16 -16 -16 -16 -16 -16 -15 -14 -14 -14 -14 -13 -14 -14 -14 -14 -14 -13 -13 -13 -13 -13 -13 -13 -13 -13 -13 -13 -13 -13
-18 -18 -17 -17 -17 -17 -17 -16 -16 -16 -16 -16 -16 -16 -16 -16 -14 -14 -12 -11 -14 -14 -14 -14 -14 -14 -13 -13 -13 -13 -13 -13 -13 -13 -13 -13 -13 -13
-19 -18 -18 -18 -17 -17 -17 -17 -17 -16 -16 -16 -16 -17 -16 -16 -15 -15 -14 -14 -13 -13 -14 -14 -14 -14 -13 -13 -13 -13 -13 -13 -13 -12 -12 -13 -13 -13
-20 -19 -18 -18 -17 -17 -17 -18 -17 -17 -17 -17 -17 -17 -17 -17 -16 -15 -15 -14 -13 -13 -14 -14 -14 -14 -14 -13 -13 -13 -13 -13 -13 -13 -13 -13 -13 -13
-20 -19 -18 -17 -17 -18 -17 -17 -18 -18 -18 -18 -17 -17 -17 -17 -17 -17 -15 -14 -13 -12 -14 -14 -14 -14 -14 -13 -13 -13 -13 -13 -13 -13 -13 -13 -13 -13
-20 -20 -19 -18 -19 -18 -18 -18 -18 -18 -18 -18 -18 -18 -18 -18 -18 -17 -16 -15 -14 -13 -14 -14 -14 -14 -14 -14 -14 -14 -14 -14 -13 -14 -13 -13 -13 -14
-22 -21 -20 -20 -20 -19 -19 -19 -19 -18 -18 -18 -18 -19 -18 -18 -18 -17 -15 -15 -15 -14 -14 -13 -14 -14 -15 -14 -14 -14 -14 -14 -14 -14 -14 -14 -14 -14
-22 -22 -22 -21 -20 -20 -20 -19 -19 -19 -19 -20 -20 -20 -19 -19 -18 -17 -16 -15 -15 -15 -14 -14 -14 -14 -14 -14 -14 -15 -15 -14 -14 -14 -14 -14 -14 -14
-22 -22 -22 -22 -22 -21 -20 -21 -20 -21 -21 -21 -21 -21 -20 -19 -19 -19 -17 -16 -16 -16 -15 -13 -13 -13 -14 -14 -15 -15 -15 -15 -14 -14 -14 -14 -14 -14
-22 -22 -22 -22 -22 -22 -22 -22 -21 -21 -21 -20 -20 -20 -20 -19 -18 -18 -18 -16 -15 -15 -15 -15 -14 -14 -14 -14 -14 -14 -15 -15 -15 -15 -14 -14 -14 -14
-23 -23 -22 -22 -22 -22 -22 -22 -22 -21 -21 -21 -20 -20 -20 -20 -19 -18 -18 -18 -18 -16 -16 -15 -15 -14 -13 -14 -13 -14 -14 -14 -14 -14 -14 -14 -14 -14
-25 -25 -25 -24 -24 -23 -22 -22 -22 -22 -21 -21 -21 -20 -20 -20 -19 -19 -18 -18 -18 -17 -17 -17 -15 -15 -15 -14 -14 -14 -14 -14 -14 -14 -14 -14 -14 -14
-25 -25 -25 -25 -25 -25 -25 -24 -24 -23 -22 -22 -21 -21 -20 -20 -19 -19 -19 -18 -18 -18 -17 -16 -16 -16 -16 -15 -15 -15 -15 -14 -14 -14 -14 -14 -14 -14
-25 -25 -25 -24 -24 -24 -24 -24 -24 -24 -24 -24 -24 -22 -21 -20 -20 -19 -19 -19 -19 -19 -18 -18 -18 -17 -16 -16 -16 -15 -15 -14 -14 -14 -14 -14 -14 -15
-25 -25 -25 -24 -24 -24 -24 -24 -24 -24 -24 -24 -24 -24 -24 -23 -22 -21 -20 -20 -19 -19 -18 -18 -18 -17 -18 -17 -17 -16 -16 -15 -14 -15 -15 -14 -14 -14
-25 -25 -25 -25 -25 -25 -25 -24 -24 -24 -24 -24 -24 -24 -24 -24 -24 -23 -23 -21 -20 -19 -19 -19 -18 -18 -18 -17 -17 -16 -16 -16 -15 -15 -15 -15 -15 -15
-25 -25 -25 -25 -25 -25 -25 -25 -24 -24 -24 -24 -24 -24 -24 -23 -23 -23 -23 -23 -22 -22 -21 -20 -20 -19 -19 -18 -18 -17 -17 -16 -16 -16 -15 -15 -15 -15
-25 -25 -25 -25 -25 -25 -25 -25 -25 -25 -25 -24 -24 -24 -24 -23 -23 -23 -23 -23 -22 -22 -22 -21 -21 -19 -19 -19 -19 -18 -17 -17 -17 -16 -16 -15 -15 -15
-26 -26 -26 -26 -26 -26 -25 -25 -25 -25 -25 -25 -25 -24 -24 -24 -24 -23 -23 -23 -22 -22 -22 -21 -21 -21 -20 -19 -18 -19 -19 -17 -17 -17 -16 -16 -15 -16
-27 -27 -27 -27 -26 -26 -26 -26 -26 -26 -26 -25 -25 -25 -25 -25 -24 -24 -24 -23 -23 -23 -22 -22 -21 -20 -20 -20 -19 -19 -19 -19 -18 -17 -16 -16 -16 -16
-28 -28 -28 -28 -28 -27 -27 -27 -27 -27 -26 -26 -26 -26 -26 -25 -25 -25 -25 -24 -24 -23 -23 -23 -22 -21 -20 -20 -19 -19 -19 -19 -19 -18 -17 -17 -16 -16

GFSNE_500_temp_162.txt.gz
Temp
-18 -18 -18 -18 -18 -18 -18 -17 -17 -17 -17 -16 -14 -15 -14 -14 -14 -12 -14 -14 -11 -13 -12 -12 -13 -13 -13 -13 -13 -12 -12 -12 -12 -13 -13 -13 -12 -12
-19 -19 -19 -19 -19 -18 -17 -17 -17 -17 -17 -17 -17 -16 -15 -14 -14 -13 -13 -12 -11 -12 -13 -12 -13 -13 -13 -13 -13 -13 -12 -12 -12 -13 -13 -13 -13 -13
-20 -20 -20 -19 -19 -18 -17 -17 -17 -17 -17 -17 -17 -17 -16 -16 -15 -14 -13 -13 -13 -13 -13 -14 -13 -13 -13 -13 -13 -13 -13 -13 -13 -13 -13 -13 -12 -12
-21 -20 -20 -20 -19 -18 -18 -18 -17 -17 -16 -16 -17 -17 -16 -16 -15 -16 -15 -14 -14 -14 -13 -13 -13 -13 -13 -13 -13 -13 -14 -14 -13 -13 -13 -13 -13 -13
-21 -21 -21 -20 -19 -18 -18 -18 -18 -17 -17 -16 -16 -16 -17 -17 -17 -17 -16 -16 -15 -14 -14 -14 -13 -13 -13 -13 -14 -13 -13 -14 -13 -13 -13 -13 -13 -13
-22 -21 -21 -20 -20 -19 -19 -18 -18 -18 -18 -17 -17 -16 -16 -17 -17 -16 -16 -16 -16 -15 -14 -14 -14 -13 -14 -13 -13 -14 -14 -14 -14 -13 -13 -13 -13 -13
-22 -21 -21 -20 -21 -19 -18 -19 -18 -18 -18 -18 -17 -17 -17 -17 -17 -17 -16 -16 -16 -15 -14 -14 -14 -13 -12 -13 -13 -13 -14 -13 -14 -14 -14 -14 -14 -13
-23 -22 -21 -21 -21 -21 -20 -19 -19 -18 -18 -18 -18 -18 -17 -17 -17 -17 -17 -16 -17 -16 -15 -15 -14 -14 -13 -14 -14 -13 -14 -14 -14 -15 -15 -14 -14 -13
-23 -23 -22 -22 -21 -21 -20 -20 -20 -19 -19 -19 -18 -18 -18 -18 -18 -18 -17 -17 -17 -16 -16 -16 -15 -15 -14 -14 -14 -14 -14 -15 -15 -15 -15 -14 -14 -14
-23 -23 -23 -22 -22 -21 -20 -20 -20 -20 -20 -19 -19 -19 -19 -19 -18 -18 -18 -18 -17 -17 -16 -17 -16 -14 -14 -14 -14 -14 -14 -14 -15 -15 -15 -15 -15 -14
-23 -23 -23 -23 -22 -22 -22 -21 -20 -20 -19 -19 -19 -19 -19 -19 -19 -19 -19 -18 -18 -18 -17 -17 -17 -16 -15 -14 -14 -14 -14 -14 -14 -14 -15 -15 -15 -15
-25 -24 -24 -24 -23 -22 -22 -22 -22 -21 -21 -21 -20 -20 -19 -19 -20 -21 -20 -19 -19 -18 -18 -17 -17 -16 -16 -15 -14 -14 -14 -14 -14 -14 -14 -14 -14 -14
-26 -25 -25 -25 -25 -24 -24 -23 -23 -22 -23 -22 -22 -21 -21 -21 -21 -21 -21 -20 -20 -19 -19 -18 -17 -17 -16 -16 -15 -15 -14 -14 -14 -14 -14 -15 -14 -14
-25 -25 -25 -25 -25 -25 -25 -25 -24 -24 -24 -23 -23 -22 -22 -22 -22 -21 -21 -20 -20 -19 -19 -19 -18 -17 -17 -17 -16 -15 -15 -15 -14 -14 -14 -14 -14 -14
-25 -25 -25 -24 -25 -24 -24 -24 -24 -24 -24 -24 -24 -25 -24 -22 -22 -21 -21 -21 -20 -19 -19 -19 -20 -20 -19 -17 -16 -16 -16 -16 -15 -15 -14 -14 -14 -14
-25 -25 -25 -25 -25 -25 -25 -25 -25 -25 -24 -24 -24 -24 -24 -25 -25 -25 -22 -21 -20 -20 -20 -19 -19 -19 -18 -19 -17 -17 -17 -16 -16 -16 -15 -14 -15 -14
-25 -25 -25 -25 -25 -25 -25 -25 -25 -25 -25 -25 -25 -24 -24 -24 -24 -25 -25 -24 -23 -22 -20 -20 -20 -19 -19 -18 -19 -19 -18 -16 -17 -17 -16 -15 -15 -15
-26 -26 -26 -26 -26 -25 -25 -25 -25 -25 -25 -25 -25 -25 -24 -24 -24 -24 -24 -24 -24 -23 -23 -22 -21 -19 -19 -19 -19 -18 -17 -17 -17 -16 -16 -16 -16 -16
-26 -26 -26 -26 -26 -26 -26 -26 -26 -25 -25 -25 -25 -25 -25 -25 -24 -24 -24 -24 -24 -23 -23 -23 -22 -22 -21 -20 -19 -18 -18 -18 -17 -17 -16 -17 -17 -17
-26 -26 -26 -26 -27 -27 -27 -27 -27 -26 -26 -26 -26 -26 -25 -25 -25 -25 -24 -24 -24 -24 -23 -23 -23 -22 -22 -22 -22 -21 -18 -18 -17 -17 -17 -17 -17 -17
-27 -27 -27 -27 -28 -28 -29 -29 -28 -28 -28 -27 -27 -27 -26 -26 -26 -25 -25 -25 -24 -24 -24 -23 -23 -23 -22 -22 -22 -22 -21 -20 -18 -17 -17 -17 -17 -17
-28 -28 -28 -29 -29 -29 -29 -29 -30 -29 -29 -29 -29 -28 -28 -27 -27 -27 -26 -26 -26 -25 -25 -24 -24 -23 -23 -22 -22 -21 -21 -21 -21 -20 -18 -17 -17 -17
-29 -29 -29 -30 -30 -30 -30 -30 -30 -30 -30 -29 -29 -29 -29 -28 -28 -28 -27 -27 -27 -27 -26 -26 -25 -24 -24 -23 -23 -22 -22 -21 -21 -20 -20 -19 -18 -17

GFSNE_500_temp_168.txt.gz
Temp
-20 -20 -19 -19 -19 -18 -18 -17 -17 -16 -16 -17 -16 -17 -16 -15 -15 -15 -15 -14 -14 -14 -13 -14 -14 -13 -13 -13 -13 -13 -14 -14 -14 -14 -14 -14 -14 -14
-20 -20 -20 -20 -19 -19 -18 -18 -18 -17 -16 -17 -17 -17 -17 -16 -16 -15 -15 -15 -14 -14 -14 -14 -14 -13 -14 -13 -13 -11 -14 -14 -14 -14 -14 -14 -14 -14
-22 -22 -22 -22 -21 -21 -20 -19 -18 -18 -17 -17 -17 -17 -17 -17 -16 -16 -16 -16 -15 -14 -14 -14 -14 -15 -15 -14 -14 -13 -13 -13 -14 -14 -13 -14 -14 -14
-24 -24 -24 -24 -24 -24 -23 -22 -22 -20 -19 -18 -18 -18 -17 -17 -18 -18 -17 -18 -18 -17 -15 -15 -16 -16 -15 -14 -13 -13 -13 -13 -13 -14 -14 -13 -14 -14
-25 -25 -25 -25 -25 -25 -25 -24 -24 -23 -22 -21 -20 -20 -19 -19 -18 -18 -18 -17 -18 -19 -17 -17 -15 -16 -15 -14 -13 -13 -13 -13 -13 -13 -14 -14 -14 -14
-26 -26 -26 -26 -26 -26 -25 -25 -24 -23 -22 -21 -20 -20 -20 -19 -19 -19 -18 -18 -18 -18 -18 -16 -16 -16 -15 -15 -14 -13 -14 -14 -14 -14 -14 -14 -14 -14
-25 -25 -25 -25 -25 -25 -25 -24 -24 -23 -23 -22 -22 -21 -20 -19 -19 -19 -19 -19 -19 -18 -18 -19 -17 -17 -17 -16 -16 -16 -15 -16 -14 -14 -14 -14 -14 -14
-25 -25 -25 -25 -25 -25 -24 -24 -24 -24 -24 -23 -22 -21 -21 -20 -20 -20 -20 -19 -19 -19 -19 -18 -18 -19 -18 -17 -16 -15 -15 -15 -14 -14 -13 -13 -14 -14
-26 -26 -26 -26 -25 -25 -25 -24 -24 -24 -23 -24 -23 -22 -21 -20 -20 -20 -20 -20 -20 -20 -20 -19 -20 -20 -18 -17 -17 -16 -15 -14 -14 -14 -14 -13 -13 -14
-26 -26 -25 -25 -25 -25 -25 -25 -25 -25 -24 -24 -23 -23 -22 -21 -21 -20 -20 -20 -20 -20 -19 -20 -19 -19 -18 -18 -18 -17 -17 -16 -16 -14 -14 -14 -14 -14
-26 -26 -26 -26 -25 -25 -25 -25 -25 -24 -25 -24 -24 -23 -22 -22 -21 -21 -20 -20 -20 -19 -20 -19 -18 -18 -18 -18 -17 -17 -17 -17 -17 -16 -14 -14 -14 -14
-26 -26 -26 -26 -26 -25 -26 -25 -25 -25 -25 -25 -24 -24 -24 -23 -23 -22 -21 -20 -20 -20 -19 -19 -19 -18 -18 -18 -17 -17 -17 -17 -17 -18 -17 -16 -15 -14
-26 -26 -26 -26 -25 -25 -25 -25 -25 -25 -25 -25 -25 -24 -24 -24 -24 -23 -23 -23 -22 -21 -20 -20 -19 -19 -19 -19 -18 -18 -17 -17 -17 -17 -17 -18 -17 -17
-26 -26 -26 -26 -26 -26 -25 -25 -25 -25 -25 -25 -25 -24 -24 -24 -24 -24 -24 -23 -23 -23 -23 -21 -20 -20 -20 -19 -19 -19 -18 -18 -18 -18 -17 -17 -16 -16
-26 -26 -26 -26 -26 -26 -26 -26 -25 -25 -25 -25 -25 -25 -25 -24 -24 -24 -24 -23 -23 -23 -24 -24 -24 -22 -21 -20 -20 -19 -20 -18 -18 -18 -18 -17 -16 -16
-26 -26 -26 -26 -26 -26 -26 -25 -25 -25 -25 -25 -25 -25 -25 -24 -24 -24 -24 -24 -24 -23 -23 -23 -24 -24 -23 -22 -21 -21 -21 -21 -20 -20 -19 -18 -17 -17
-27 -27 -26 -26 -26 -26 -26 -26 -26 -26 -26 -26 -25 -25 -25 -25 -24 -24 -24 -24 -24 -24 -24 -24 -23 -24 -24 -24 -24 -23 -23 -22 -22 -21 -20 -20 -18 -18
-27 -27 -27 -27 -27 -27 -27 -27 -27 -27 -27 -27 -27 -26 -26 -26 -25 -25 -25 -25 -25 -24 -24 -24 -25 -24 -24 -24 -24 -24 -24 -24 -24 -22 -21 -21 -20 -19
-27 -28 -28 -28 -28 -28 -28 -28 -28 -28 -28 -27 -27 -27 -27 -28 -28 -28 -28 -28 -28 -27 -26 -26 -25 -25 -25 -25 -24 -23 -24 -24 -25 -25 -25 -22 -21 -20
-28 -28 -28 -28 -28 -28 -28 -28 -28 -28 -28 -29 -29 -29 -29 -29 -29 -29 -29 -29 -29 -29 -29 -28 -27 -27 -26 -26 -26 -25 -24 -24 -24 -24 -24 -24 -24 -22
-28 -29 -29 -29 -29 -29 -29 -29 -29 -29 -29 -30 -30 -30 -30 -30 -30 -30 -30 -30 -30 -30 -29 -29 -29 -28 -28 -27 -26 -26 -26 -25 -25 -24 -24 -24 -23 -23
-29 -29 -29 -29 -29 -29 -29 -30 -30 -30 -30 -30 -30 -30 -30 -30 -30 -30 -30 -30 -30 -30 -30 -30 -29 -29 -29 -29 -28 -27 -27 -26 -25 -25 -24 -24 -24 -23
-29 -29 -29 -29 -30 -30 -30 -30 -30 -30 -31 -31 -31 -31 -31 -31 -31 -31 -30 -30 -30 -30 -29 -29 -29 -29 -29 -29 -29 -29 -28 -28 -27 -27 -26 -24 -24 -23

GFSNE_500_temp_171.txt.gz
Temp
-20 -20 -20 -20 -19 -19 -18 -18 -17 -17 -17 -18 -17 -18 -17 -17 -17 -16 -16 -15 -15 -14 -14 -14 -14 -14 -14 -14 -14 -14 -13 -12 -13 -14 -14 -13 -13 -13
-21 -21 -21 -21 -20 -20 -20 -19 -19 -18 -17 -17 -18 -18 -18 -18 -17 -17 -16 -16 -16 -15 -15 -14 -14 -14 -14 -14 -14 -14 -13 -13 -13 -13 -13 -14 -13 -13
-22 -22 -22 -22 -22 -22 -22 -21 -21 -20 -19 -18 -18 -17 -18 -18 -18 -17 -17 -17 -16 -16 -16 -15 -15 -15 -14 -14 -14 -14 -14 -12 -14 -12 -13 -14 -14 -13
-24 -24 -24 -24 -24 -24 -24 -24 -23 -23 -22 -22 -20 -18 -18 -18 -18 -18 -17 -17 -16 -16 -16 -15 -15 -15 -15 -14 -15 -14 -15 -14 -14 -14 -14 -13 -14 -14
-25 -25 -25 -25 -25 -25 -25 -25 -25 -24 -24 -24 -23 -22 -21 -20 -18 -18 -18 -17 -17 -17 -17 -16 -16 -15 -15 -15 -14 -15 -15 -14 -14 -14 -14 -14 -14 -14
-25 -25 -25 -25 -25 -25 -25 -25 -25 -25 -24 -24 -24 -23 -22 -22 -21 -20 -19 -18 -18 -17 -17 -17 -17 -17 -17 -16 -16 -15 -15 -15 -15 -15 -14 -14 -14 -13
-26 -25 -25 -26 -26 -25 -25 -25 -25 -24 -24 -24 -24 -24 -23 -22 -22 -21 -20 -20 -19 -19 -19 -18 -18 -18 -18 -18 -17 -17 -15 -15 -15 -15 -14 -14 -14 -13
-26 -26 -26 -26 -26 -26 -26 -26 -26 -25 -25 -25 -25 -24 -23 -23 -22 -22 -21 -21 -20 -20 -20 -20 -18 -18 -19 -19 -18 -17 -17 -16 -16 -15 -15 -15 -14 -14
-25 -25 -25 -26 -26 -26 -26 -26 -26 -26 -26 -26 -26 -26 -25 -24 -23 -22 -21 -21 -21 -21 -20 -20 -19 -19 -19 -19 -18 -18 -18 -17 -16 -16 -16 -15 -15 -15
-26 -25 -25 -26 -26 -25 -25 -25 -25 -25 -25 -25 -25 -25 -25 -25 -25 -23 -23 -22 -21 -21 -21 -20 -20 -19 -19 -19 -18 -19 -19 -18 -18 -17 -16 -16 -17 -15
-26 -26 -26 -26 -26 -26 -25 -25 -25 -25 -25 -25 -25 -25 -25 -25 -25 -25 -25 -23 -22 -22 -21 -21 -20 -20 -20 -19 -19 -19 -20 -19 -19 -17 -18 -17 -17 -16
-26 -26 -26 -26 -26 -26 -26 -26 -26 -26 -25 -25 -25 -24 -24 -24 -24 -24 -24 -24 -25 -24 -23 -22 -21 -21 -21 -20 -20 -19 -19 -19 -18 -19 -18 -18 -17 -16
-26 -26 -26 -26 -26 -26 -26 -26 -26 -26 -26 -25 -25 -25 -25 -24 -24 -24 -24 -24 -24 -24 -24 -24 -23 -22 -22 -21 -21 -20 -20 -19 -19 -19 -18 -17 -17 -17
-26 -26 -26 -26 -26 -26 -26 -26 -26 -26 -26 -25 -25 -25 -25 -25 -25 -25 -24 -24 -24 -24 -24 -24 -24 -24 -24 -22 -21 -21 -20 -20 -19 -18 -18 -18 -17 -17
-26 -26 -26 -26 -26 -26 -26 -26 -26 -26 -26 -26 -26 -25 -25 -25 -25 -25 -24 -24 -24 -24 -24 -24 -24 -24 -24 -24 -23 -21 -21 -20 -20 -19 -19 -18 -18 -17
-27 -27 -27 -26 -26 -26 -26 -26 -26 -26 -26 -26 -26 -26 -26 -26 -26 -26 -25 -25 -25 -24 -24 -24 -24 -24 -24 -24 -23 -24 -23 -22 -21 -20 -20 -19 -18 -18
-27 -27 -27 -27 -27 -27 -27 -27 -27 -27 -27 -27 -27 -27 -27 -27 -27 -26 -26 -26 -25 -25 -25 -25 -24 -24 -23 -23 -23 -24 -24 -24 -23 -22 -21 -20 -19 -19
-27 -27 -28 -28 -28 -28 -28 -28 -27 -27 -27 -27 -27 -27 -27 -27 -27 -27 -27 -27 -27 -26 -26 -25 -25 -25 -25 -24 -23 -23 -24 -24 -24 -24 -23 -22 -21 -19
-28 -28 -28 -28 -28 -29 -29 -28 -28 -28 -28 -28 -28 -28 -28 -28 -28 -28 -28 -28 -28 -28 -28 -28 -28 -28 -28 -28 -27 -24 -23 -24 -24 -24 -24 -24 -24 -22
-28 -28 -29 -29 -29 -29 -29 -28 -28 -28 -28 -28 -29 -29 -29 -29 -29 -29 -29 -29 -29 -30 -30 -30 -29 -29 -29 -29 -29 -29 -26 -25 -24 -25 -25 -24 -24 -25
-29 -29 -29 -29 -29 -29 -29 -29 -29 -29 -29 -29 -30 -30 -30 -30 -30 -30 -30 -30 -30 -30 -30 -30 -30 -30 -30 -29 -29 -29 -29 -28 -28 -26 -25 -25 -25 -25
-29 -29 -29 -29 -29 -29 -30 -30 -30 -30 -30 -30 -30 -31 -31 -31 -31 -31 -31 -31 -31 -31 -30 -30 -30 -30 -30 -30 -30 -29 -29 -30 -29 -29 -28 -26 -25 -25
-30 -30 -30 -30 -30 -30 -30 -30 -31 -31 -31 -31 -31 -31 -31 -31 -31 -31 -31 -31 -31 -31 -30 -30 -30 -30 -30 -30 -30 -30 -29 -29 -29 -29 -29 -28 -27 -26

GFSNE_500_temp_177.txt.gz
Temp
-22 -22 -21 -21 -21 -21 -21 -21 -21 -21 -21 -20 -20 -19 -19 -19 -18 -18 -18 -17 -16 -16 -15 -15 -15 -15 -15 -14 -14 -14 -14 -14 -14 -14 -13 -14 -14 -14
-24 -23 -23 -23 -23 -22 -22 -22 -22 -22 -21 -21 -20 -20 -20 -19 -19 -18 -18 -17 -17 -17 -16 -15 -15 -15 -15 -15 -15 -15 -14 -14 -14 -14 -14 -14 -13 -14
-24 -24 -24 -24 -24 -23 -23 -23 -23 -24 -24 -23 -23 -22 -22 -21 -19 -19 -18 -18 -17 -17 -17 -16 -16 -16 -16 -16 -15 -15 -15 -14 -14 -14 -14 -14 -14 -14
-25 -25 -25 -24 -24 -24 -24 -24 -24 -24 -24 -24 -24 -24 -24 -24 -23 -22 -19 -18 -18 -17 -17 -17 -16 -16 -16 -16 -16 -16 -15 -15 -15 -14 -15 -14 -14 -14
-25 -25 -25 -25 -25 -25 -25 -25 -24 -25 -25 -24 -24 -25 -25 -24 -23 -22 -23 -22 -19 -18 -18 -17 -17 -17 -16 -16 -16 -16 -16 -16 -15 -15 -15 -15 -15 -15
-25 -25 -25 -25 -25 -25 -25 -25 -25 -25 -25 -25 -25 -25 -25 -25 -24 -24 -23 -23 -22 -21 -19 -18 -17 -17 -17 -17 -17 -17 -17 -17 -16 -16 -16 -15 -15 -15
-25 -25 -25 -25 -25 -25 -25 -25 -25 -25 -25 -25 -25 -25 -25 -25 -25 -25 -24 -25 -23 -23 -22 -21 -19 -17 -18 -17 -17 -17 -17 -17 -17 -17 -16 -16 -16 -16
-25 -25 -25 -25 -25 -25 -25 -25 -25 -25 -25 -25 -25 -25 -25 -25 -25 -25 -25 -25 -25 -24 -23 -23 -22 -21 -20 -18 -18 -18 -17 -17 -17 -17 -17 -16 -16 -16
-25 -26 -25 -25 -25 -25 -25 -25 -25 -25 -25 -25 -25 -25 -25 -25 -25 -25 -25 -25 -25 -25 -24 -23 -23 -23 -23 -22 -20 -19 -19 -18 -18 -17 -17 -17 -16 -16
-26 -26 -26 -26 -25 -25 -25 -25 -25 -25 -25 -25 -25 -25 -25 -25 -25 -25 -25 -25 -25 -25 -24 -24 -24 -23 -23 -23 -23 -22 -20 -19 -18 -18 -18 -18 -17 -17
-26 -26 -26 -26 -26 -25 -25 -25 -25 -25 -25 -25 -25 -25 -25 -25 -25 -25 -25 -25 -25 -25 -24 -25 -25 -24 -23 -23 -23 -22 -22 -21 -20 -19 -18 -18 -18 -18
-26 -26 -26 -26 -26 -26 -26 -26 -26 -25 -25 -25 -25 -25 -25 -25 -25 -26 -26 -26 -25 -25 -25 -25 -25 -25 -25 -24 -23 -22 -22 -22 -21 -21 -20 -19 -19 -19
-26 -26 -26 -26 -26 -26 -26 -26 -26 -26 -26 -26 -26 -26 -26 -26 -25 -25 -25 -26 -26 -25 -25 -25 -25 -25 -24 -24 -25 -24 -24 -22 -21 -21 -21 -20 -20 -20
-26 -26 -26 -26 -26 -26 -26 -26 -27 -27 -27 -27 -27 -27 -26 -26 -26 -26 -26 -26 -26 -26 -26 -25 -25 -25 -25 -25 -24 -24 -24 -24 -24 -22 -21 -21 -20 -20
-27 -27 -27 -27 -27 -27 -27 -27 -27 -27 -27 -27 -27 -27 -27 -27 -27 -27 -27 -26 -26 -26 -26 -26 -25 -25 -25 -25 -25 -25 -24 -24 -23 -24 -24 -22 -21 -21
-27 -27 -27 -27 -27 -27 -27 -27 -27 -27 -27 -27 -27 -27 -27 -27 -27 -27 -27 -27 -27 -27 -27 -27 -27 -26 -26 -25 -24 -25 -25 -25 -25 -24 -23 -23 -23 -23
-27 -27 -27 -27 -27 -27 -28 -28 -28 -28 -27 -27 -27 -28 -28 -28 -28 -28 -28 -28 -28 -28 -28 -28 -28 -27 -27 -27 -26 -25 -25 -25 -25 -25 -25 -24 -23 -23
-27 -28 -28 -28 -28 -28 -28 -28 -28 -28 -28 -28 -28 -28 -28 -29 -29 -29 -29 -28 -29 -29 -29 -28 -28 -28 -28 -28 -27 -26 -26 -26 -25 -25 -24 -25 -25 -24
-28 -28 -28 -28 -28 -28 -28 -28 -28 -29 -29 -29 -29 -29 -29 -29 -29 -29 -29 -29 -29 -29 -29 -29 -29 -29 -29 -29 -29 -28 -27 -27 -26 -26 -25 -25 -24 -25
-28 -28 -29 -29 -29 -29 -29 -29 -29 -29 -29 -29 -30 -30 -30 -30 -30 -30 -30 -30 -30 -30 -30 -30 -30 -30 -29 -29 -29 -30 -30 -29 -28 -28 -27 -26 -25 -25
-29 -29 -29 -29 -29 -29 -29 -30 -30 -30 -30 -30 -30 -30 -30 -31 -31 -31 -31 -31 -31 -31 -32 -32 -32 -31 -31 -31 -31 -31 -31 -30 -30 -30 -30 -29 -29 -28
-29 -29 -29 -29 -30 -30 -30 -30 -30 -30 -31 -31 -31 -31 -31 -32 -32 -33 -33 -33 -32 -32 -32 -32 -32 -32 -32 -31 -31 -31 -31 -31 -30 -30 -30 -29 -29 -29
-29 -29 -30 -30 -30 -30 -30 -31 -31 -31 -31 -31 -32 -32 -33 -33 -33 -33 -33 -33 -33 -33 -33 -32 -32 -32 -32 -31 -31 -31 -31 -30 -30 -31 -30 -29 -29 -29

GFSNE_500_temp_183.txt.gz
Temp
-22 -22 -23 -23 -23 -23 -24 -24 -23 -23 -23 -23 -22 -22 -22 -21 -21 -21 -20 -20 -19 -19 -18 -18 -18 -17 -16 -16 -16 -16 -16 -16 -16 -16 -15 -15 -15 -14
-23 -23 -24 -24 -24 -24 -24 -24 -24 -24 -24 -23 -23 -23 -23 -22 -22 -22 -21 -20 -20 -19 -19 -18 -18 -17 -17 -17 -16 -16 -15 -16 -16 -16 -16 -15 -15 -15
-24 -24 -24 -24 -25 -25 -25 -25 -24 -24 -24 -24 -24 -24 -24 -24 -24 -24 -23 -22 -21 -20 -19 -19 -19 -18 -18 -17 -17 -17 -16 -16 -16 -16 -16 -16 -15 -15
-24 -24 -24 -25 -25 -25 -25 -25 -25 -25 -25 -25 -24 -24 -24 -24 -24 -24 -24 -23 -23 -22 -21 -20 -19 -19 -18 -18 -17 -17 -17 -17 -16 -16 -16 -16 -16 -15
-24 -24 -25 -25 -25 -25 -25 -25 -25 -25 -25 -25 -25 -25 -24 -24 -24 -24 -24 -24 -24 -23 -23 -22 -22 -21 -20 -19 -18 -18 -17 -17 -17 -17 -17 -17 -16 -16
-25 -25 -25 -25 -25 -25 -25 -25 -25 -25 -25 -25 -25 -24 -24 -24 -24 -24 -24 -24 -23 -23 -23 -23 -22 -22 -22 -21 -20 -18 -18 -17 -17 -17 -17 -17 -17 -16
-25 -25 -25 -25 -25 -25 -25 -25 -25 -24 -24 -24 -24 -24 -24 -24 -24 -24 -24 -24 -24 -23 -23 -23 -23 -23 -22 -22 -22 -21 -20 -19 -18 -17 -18 -17 -17 -17
-25 -25 -25 -25 -25 -25 -25 -25 -25 -24 -24 -24 -24 -24 -25 -25 -25 -25 -24 -24 -24 -24 -24 -24 -23 -23 -23 -23 -23 -22 -22 -22 -20 -19 -18 -18 -18 -17
-25 -25 -25 -25 -25 -25 -25 -25 -25 -25 -25 -25 -25 -25 -25 -25 -25 -25 -24 -24 -24 -24 -24 -24 -24 -24 -24 -24 -23 -24 -23 -23 -22 -22 -20 -19 -19 -18
-25 -25 -25 -25 -25 -25 -25 -25 -25 -25 -25 -25 -25 -25 -25 -25 -25 -25 -25 -24 -24 -24 -24 -24 -24 -24 -24 -24 -24 -24 -24 -24 -23 -23 -23 -22 -20 -19
-25 -25 -25 -25 -26 -25 -26 -25 -25 -25 -25 -25 -25 -25 -25 -25 -25 -25 -25 -25 -24 -24 -24 -24 -25 -24 -24 -24 -24 -24 -24 -24 -24 -24 -23 -23 -23 -21
-26 -26 -25 -26 -26 -25 -25 -25 -25 -26 -26 -26 -26 -26 -26 -26 -25 -25 -25 -25 -25 -25 -25 -25 -25 -25 -25 -25 -24 -25 -25 -24 -24 -24 -24 -24 -23 -23
-26 -26 -26 -26 -26 -26 -26 -26 -26 -26 -26 -26 -26 -26 -26 -26 -26 -26 -26 -26 -26 -26 -26 -26 -26 -26 -26 -26 -26 -26 -26 -25 -25 -24 -24 -24 -24 -23
-26 -26 -26 -26 -26 -26 -26 -26 -26 -26 -26 -26 -26 -26 -26 -26 -26 -26 -26 -26 -26 -26 -27 -27 -26 -26 -26 -26 -27 -27 -26 -26 -26 -26 -26 -25 -24 -24
-26 -26 -26 -26 -26 -26 -26 -26 -26 -26 -26 -26 -26 -26 -26 -27 -27 -27 -27 -27 -27 -27 -27 -27 -27 -27 -27 -27 -27 -27 -27 -27 -27 -27 -27 -26 -26 -25
-26 -26 -26 -26 -26 -26 -26 -27 -27 -27 -27 -27 -27 -27 -27 -27 -27 -28 -28 -28 -28 -28 -28 -28 -28 -28 -28 -28 -28 -28 -27 -27 -27 -27 -27 -27 -27 -26
-26 -27 -27 -27 -27 -27 -27 -27 -27 -27 -27 -27 -27 -27 -28 -28 -28 -28 -28 -28 -28 -28 -28 -29 -29 -29 -29 -29 -29 -29 -29 -28 -28 -28 -28 -28 -28 -27
-27 -27 -27 -27 -27 -27 -27 -27 -28 -28 -28 -28 -28 -28 -28 -28 -29 -29 -29 -29 -29 -29 -29 -29 -29 -29 -29 -30 -29 -29 -29 -29 -29 -28 -28 -28 -28 -28
-27 -27 -27 -27 -27 -27 -28 -28 -28 -28 -28 -28 -28 -28 -29 -29 -29 -29 -29 -29 -29 -29 -30 -30 -30 -30 -31 -31 -32 -32 -31 -31 -31 -30 -29 -29 -28 -28
-27 -27 -27 -27 -28 -28 -28 -28 -28 -28 -28 -29 -29 -29 -29 -29 -29 -29 -30 -30 -30 -30 -30 -31 -32 -32 -32 -32 -32 -32 -32 -32 -32 -31 -31 -31 -31 -30
-27 -28 -28 -28 -28 -28 -28 -28 -29 -29 -29 -29 -29 -29 -30 -30 -30 -30 -30 -30 -31 -32 -32 -32 -32 -32 -32 -32 -32 -32 -32 -32 -32 -31 -31 -31 -31 -31
-28 -28 -28 -28 -29 -29 -29 -29 -29 -29 -29 -30 -30 -30 -30 -30 -30 -30 -31 -31 -32 -32 -32 -32 -33 -32 -32 -32 -32 -32 -32 -32 -32 -32 -31 -31 -31 -30
-28 -28 -29 -29 -29 -29 -29 -29 -30 -30 -30 -30 -30 -30 -30 -31 -31 -32 -32 -33 -33 -33 -33 -33 -33 -33 -33 -33 -33 -32 -32 -33 -32 -33 -33 -33 -32 -31

GFSNE_500_temp_189.txt.gz
Temp
-22 -21 -21 -22 -22 -22 -22 -22 -23 -23 -23 -24 -24 -24 -24 -24 -24 -24 -23 -23 -23 -23 -22 -22 -21 -21 -20 -20 -19 -19 -19 -18 -18 -17 -17 -17 -16 -16
-22 -22 -23 -22 -23 -23 -23 -23 -24 -24 -24 -24 -24 -24 -25 -25 -25 -25 -25 -25 -24 -24 -23 -23 -22 -21 -21 -20 -20 -20 -19 -19 -19 -18 -18 -17 -17 -17
-23 -23 -23 -23 -23 -23 -24 -24 -24 -24 -24 -24 -24 -25 -25 -25 -25 -25 -25 -25 -25 -25 -25 -24 -23 -22 -21 -21 -20 -20 -20 -19 -19 -18 -18 -18 -17 -17
-23 -23 -23 -23 -23 -24 -24 -24 -24 -24 -24 -24 -24 -24 -24 -25 -25 -25 -25 -25 -25 -24 -24 -24 -24 -24 -23 -22 -21 -20 -20 -20 -19 -19 -19 -18 -18 -17
-24 -24 -24 -24 -24 -24 -24 -24 -24 -24 -24 -24 -24 -24 -24 -24 -24 -25 -25 -25 -25 -25 -24 -24 -24 -24 -24 -24 -23 -22 -21 -20 -19 -19 -19 -19 -18 -18
-24 -24 -24 -24 -24 -24 -24 -24 -24 -24 -24 -24 -24 -24 -24 -24 -24 -24 -24 -24 -24 -24 -24 -24 -24 -24 -24 -24 -24 -24 -23 -22 -21 -20 -19 -19 -19 -19
-24 -24 -25 -25 -25 -25 -25 -25 -24 -24 -24 -24 -24 -24 -24 -24 -24 -24 -24 -24 -24 -24 -24 -24 -24 -24 -23 -23 -23 -23 -23 -23 -23 -22 -21 -21 -20 -19
-25 -25 -25 -25 -25 -25 -25 -25 -24 -24 -24 -24 -24 -24 -24 -24 -24 -24 -25 -25 -24 -24 -24 -24 -24 -23 -23 -23 -23 -23 -23 -23 -23 -23 -22 -21 -21 -20
-25 -25 -25 -25 -25 -25 -25 -25 -25 -24 -24 -24 -24 -24 -25 -25 -24 -24 -24 -25 -24 -24 -24 -24 -24 -24 -23 -23 -23 -23 -23 -23 -23 -23 -22 -22 -22 -22
-25 -25 -25 -25 -25 -25 -25 -25 -25 -25 -25 -25 -25 -25 -25 -25 -25 -25 -25 -25 -25 -25 -25 -25 -24 -24 -24 -24 -23 -23 -23 -23 -23 -22 -22 -22 -22 -22
-25 -25 -25 -25 -25 -25 -25 -25 -25 -25 -25 -25 -25 -25 -25 -25 -25 -25 -25 -25 -25 -25 -25 -25 -24 -24 -24 -23 -23 -23 -23 -23 -23 -23 -23 -23 -23 -22
-25 -25 -25 -25 -25 -25 -25 -25 -25 -25 -25 -25 -25 -25 -25 -25 -25 -25 -25 -25 -25 -25 -25 -25 -25 -25 -24 -24 -24 -24 -23 -23 -23 -23 -23 -23 -23 -23
-26 -26 -25 -25 -26 -26 -26 -25 -25 -25 -25 -25 -26 -26 -26 -25 -25 -25 -25 -25 -25 -25 -26 -25 -25 -25 -25 -25 -25 -25 -24 -24 -24 -24 -24 -23 -23 -24
-26 -25 -25 -26 -26 -26 -26 -26 -26 -26 -25 -26 -26 -26 -26 -26 -26 -25 -25 -26 -26 -26 -26 -26 -25 -25 -25 -26 -26 -26 -25 -25 -25 -25 -25 -25 -24 -24
-25 -25 -26 -26 -26 -26 -26 -26 -26 -26 -26 -26 -26 -26 -26 -26 -26 -26 -26 -26 -26 -26 -26 -26 -26 -26 -26 -26 -26 -26 -26 -26 -26 -26 -26 -26 -26 -25
-25 -26 -26 -26 -26 -26 -26 -26 -26 -26 -26 -26 -26 -26 -26 -26 -26 -26 -26 -26 -27 -27 -27 -27 -27 -26 -27 -27 -26 -26 -27 -27 -27 -27 -27 -27 -27 -26
-26 -26 -26 -26 -26 -26 -26 -26 -26 -26 -26 -26 -26 -27 -27 -27 -27 -27 -27 -27 -27 -27 -27 -27 -27 -27 -27 -27 -28 -28 -27 -27 -27 -27 -27 -27 -27 -27
-26 -26 -26 -26 -26 -26 -26 -26 -27 -27 -27 -27 -27 -27 -27 -27 -27 -27 -27 -28 -28 -28 -28 -28 -28 -28 -28 -28 -28 -28 -28 -28 -28 -28 -28 -28 -29 -30
-26 -26 -27 -26 -26 -27 -27 -27 -27 -27 -28 -28 -28 -28 -28 -28 -28 -28 -28 -28 -28 -28 -29 -29 -28 -28 -29 -29 -29 -30 -29 -29 -29 -30 -31 -31 -32 -32
-26 -26 -26 -26 -27 -27 -27 -27 -27 -28 -28 -28 -28 -28 -28 -28 -28 -29 -29 -29 -29 -29 -29 -29 -29 -29 -30 -30 -30 -30 -30 -31 -31 -32 -32 -32 -32 -32
-27 -27 -27 -27 -27 -27 -28 -28 -28 -28 -28 -28 -29 -29 -29 -29 -29 -29 -29 -30 -30 -30 -30 -30 -30 -30 -30 -31 -31 -31 -32 -33 -33 -32 -32 -32 -32 -32
-28 -28 -28 -28 -28 -28 -28 -28 -29 -29 -29 -29 -29 -29 -29 -30 -30 -30 -30 -30 -30 -30 -30 -31 -31 -31 -31 -31 -32 -32 -33 -33 -33 -34 -33 -33 -32 -32
-28 -28 -28 -28 -28 -28 -28 -28 -29 -29 -29 -30 -30 -30 -30 -30 -30 -30 -31 -31 -31 -31 -31 -31 -31 -32 -32 -32 -33 -33 -33 -34 -34 -34 -34 -34 -34 -33